This is the latest recevied weather packets stored in our database for station/object LU1MQF-10. If no packets are shown the sender has not sent any weather packets the latest 10 day(s).
| Time | Temp. | Humidity | Pressure | Rain* | Wind** | Luminosity | Snow |
|---|---|---|---|---|---|---|---|
| 1777661787 | 18.33° C | 17% | 1020 hPa | - | - | - | - |
| 1777661780 | 18.33° C | 17% | 1020 hPa | - | - | - | - |
| 1777660885 | 18.33° C | 16% | 1019.9 hPa | - | - | - | - |
| 1777660879 | 18.33° C | 16% | 1019.9 hPa | - | - | - | - |
| 1777659985 | 18.33° C | 16% | 1019.7 hPa | - | - | - | - |
| 1777659979 | 18.33° C | 16% | 1019.7 hPa | - | - | - | - |
| 1777659085 | 18.33° C | 16% | 1019.6 hPa | - | - | - | - |
| 1777659079 | 18.33° C | 16% | 1019.6 hPa | - | - | - | - |
| 1777658183 | 18.33° C | 17% | 1019.5 hPa | - | - | - | - |
| 1777658176 | 18.33° C | 17% | 1019.5 hPa | - | - | - | - |
| 1777657281 | 18.33° C | 18% | 1019.7 hPa | - | - | - | - |
| 1777657274 | 18.33° C | 18% | 1019.7 hPa | - | - | - | - |
| 1777656380 | 18.33° C | 17% | 1019.4 hPa | - | - | - | - |
| 1777656374 | 18.33° C | 17% | 1019.4 hPa | - | - | - | - |
| 1777655480 | 18.33° C | 20% | 1019.6 hPa | - | - | - | - |
| 1777655474 | 18.33° C | 20% | 1019.6 hPa | - | - | - | - |
| 1777654580 | 18.89° C | 27% | 1019.7 hPa | - | - | - | - |
| 1777654573 | 18.89° C | 27% | 1019.7 hPa | - | - | - | - |
| 1777653680 | 18.89° C | 26% | 1019.5 hPa | - | - | - | - |
| 1777653673 | 18.89° C | 26% | 1019.5 hPa | - | - | - | - |
| 1777652780 | 18.33° C | 21% | 1019.7 hPa | - | - | - | - |
| 1777652773 | 18.33° C | 21% | 1019.7 hPa | - | - | - | - |
| 1777651876 | 17.78° C | 21% | 1019.6 hPa | - | - | - | - |
| 1777651868 | 17.78° C | 21% | 1019.6 hPa | - | - | - | - |
| 1777650975 | 17.78° C | 21% | 1019.6 hPa | - | - | - | - |
* Rain since midnight (hover to see other rain measurements)
** Current wind speed in m/s (hover to see current wind gust speed)